[[{"header":{"parameterUnit":"m.s-1","parameterCategory":2,"la1":30.2991,"la2":30.254,"lo1":-89.0895,"lo2":-89.0444,"dy":0.0017,"dx":0.0017,"nx":28,"ny":28,"refTime":"2023-05-28T21:00:00:Z","depth":"0","parameterNumber":2,"parameterNumberName":"U-component_of_CURRENTS"},"data":[0,0,0,0,0,0,0,0,0,0,0,0,0,0,0,0,0,0,0,0,0,0,0,0,0,0,0,0,0,0,0,0,0,0,0,0,0,0,0,0,0,0,0,0,0,0,0,0,0,0,0,0,0,0,0,0,0,0,-0.1933,-0.1932,0,-0.1827,-0.1826,-0.1825,-0.1789,-0.1789,-0.1789,-0.1789,-0.1691,-0.1688,-0.1685,0,0,0,0,0,0,0,0,0,0,0,0,0,-0.2009,-0.2009,-0.1933,-0.1932,-0.1931,-0.1827,-0.1826,-0.1825,-0.1788,-0.1789,-0.1789,-0.179,-0.1692,-0.1689,-0.1685,0,0,0,0,0,0,0,0,0,0,0,0,0,-0.1948,-0.2009,-0.1934,-0.1899,-0.1895,-0.1828,-0.1826,-0.1824,-0.1788,-0.1789,-0.1789,-0.179,-0.1693,-0.1689,-0.1685,-0.1648,0,0,-0.1671,-0.1669,0,0,0,0,0,0,0,0,-0.1952,-0.1946,-0.1906,-0.1902,-0.1897,-0.1821,-0.1816,-0.1765,-0.1788,-0.183,-0.1789,-0.179,-0.1734,-0.1726,-0.1707,-0.1643,-0.1639,-0.1671,-0.1668,-0.1666,-0.1665,0,0,0,0,0,0,0,-0.1956,-0.1949,-0.1892,-0.1904,-0.1899,-0.1856,-0.1849,-0.1806,-0.1782,-0.1826,-0.1823,-0.181,-0.1732,-0.1711,-0.1704,-0.1637,-0.1671,-0.1667,-0.1664,-0.1663,-0.1575,-0.1575,0,0,0,0,0,0,-0.1972,-0.1954,-0.1896,-0.1889,-0.1925,-0.1855,-0.1847,-0.1845,-0.1782,-0.1772,-0.1809,-0.1808,-0.1718,-0.1709,-0.1701,-0.1688,-0.1666,-0.1662,-0.166,-0.1574,-0.1575,-0.1575,0,0,0,0,0,0,-0.1974,-0.1968,-0.19,-0.1917,-0.1906,-0.1854,-0.1852,-0.1843,-0.1827,-0.1768,-0.1759,-0.1803,-0.1718,-0.1707,-0.1678,-0.1683,-0.166,-0.1656,-0.1574,-0.1574,-0.1575,-0.1642,0,0,0,0,0,0,-0.1977,-0.197,-0.1982,-0.1919,-0.1905,-0.1879,-0.1851,-0.1841,-0.1817,-0.1815,-0.176,-0.1751,-0.1718,-0.1685,-0.1674,-0.1677,-0.1653,-0.1574,-0.1574,-0.1575,-0.1639,-0.1644,-0.1649,0,0,0,0,0,-0.198,-0.1994,-0.1984,-0.1977,-0.1922,-0.188,-0.187,-0.1833,-0.1817,-0.1819,-0.1782,-0.1753,-0.168,-0.1681,-0.1668,-0.167,-0.1573,-0.1574,-0.1575,-0.1637,-0.1643,-0.1649,0,0,0,0,0,0,-0.2033,-0.1989,-0.1978,-0.1978,-0.1942,-0.1874,-0.1868,-0.1837,-0.1806,-0.1805,-0.1752,-0.1741,-0.1718,-0.1684,-0.1687,-0.1647,-0.1623,-0.1621,-0.1675,-0.168,-0.1685,-0.1706,-0.1649,0,0,0,0,0,-0.205,-0.2052,-0.1999,-0.2002,-0.1985,-0.1927,-0.1906,-0.1879,-0.1837,-0.1823,-0.1783,-0.1742,-0.1707,-0.1689,-0.1653,-0.1627,-0.1625,-0.1621,-0.1626,-0.163,-0.1638,-0.166,-0.1669,-0.1577,-0.1577,-0.1577,0,0,-0.2068,-0.2047,-0.2046,-0.2013,-0.1979,-0.196,-0.1917,-0.1889,-0.1876,-0.1816,-0.1795,-0.1756,-0.1704,-0.1681,-0.1668,-0.1656,-0.1654,-0.1631,-0.1635,-0.1641,-0.1662,-0.1671,-0.168,-0.1578,-0.1577,-0.1577,0,0,-0.2098,-0.2088,-0.2096,-0.207,-0.2028,-0.1991,-0.1987,-0.1926,-0.1907,-0.1876,-0.1833,-0.1808,-0.1744,-0.1718,-0.1693,-0.1702,-0.1679,-0.1682,-0.1721,-0.1743,-0.1751,-0.1758,-0.1766,-0.1773,-0.1684,-0.1685,-0.1685,0,-0.2124,-0.2126,-0.2091,-0.2086,-0.2068,-0.2009,-0.2004,-0.1973,-0.1913,-0.1905,-0.1885,-0.1809,-0.1767,-0.1741,-0.1741,-0.1715,-0.1718,-0.1704,-0.1752,-0.1759,-0.1765,-0.1771,-0.1779,-0.1688,-0.1688,-0.1687,-0.1687,0,-0.2146,-0.2153,-0.2153,-0.2133,-0.2112,-0.2098,-0.2047,-0.2034,-0.1999,-0.1966,-0.1939,-0.1881,-0.1843,-0.1819,-0.1777,-0.1789,-0.1774,-0.1759,-0.1743,-0.1779,-0.1782,-0.1789,-0.1693,-0.1691,-0.169,-0.169,0,0,-0.2181,-0.2174,-0.2173,-0.2181,-0.2135,-0.212,-0.2107,-0.208,-0.2086,-0.203,-0.2031,-0.1962,-0.1934,-0.1904,-0.1851,-0.1855,-0.1894,-0.1825,-0.1825,-0.1844,-0.1937,-0.193,-0.1936,-0.1892,-0.1893,-0.1895,-0.1922,0,-0.2208,-0.2231,-0.2206,-0.2219,-0.2225,-0.218,-0.2176,-0.2148,-0.2123,-0.2114,-0.2053,-0.2031,-0.1964,-0.195,-0.1943,-0.1901,-0.1914,-0.1887,-0.1889,-0.1889,-0.1889,-0.1945,-0.1982,-0.201,-0.1928,-0.1929,-0.193,0,-0.2231,-0.2247,-0.2273,-0.2281,-0.2277,-0.2272,-0.2269,-0.2258,-0.2232,-0.2214,-0.2184,-0.2134,-0.2101,-0.2054,-0.2023,-0.2009,-0.1985,-0.1957,-0.1957,-0.1934,-0.1895,-0.196,-0.2025,-0.1962,-0.1939,-0.1939,-0.1938,0,-0.228,-0.229,-0.232,-0.2318,-0.2314,-0.232,-0.2312,-0.2296,-0.23,-0.2284,-0.2293,-0.2239,-0.222,-0.2181,-0.21,-0.2075,-0.2079,-0.2042,-0.2016,-0.2015,-0.2038,-0.2036,-0.2055,-0.2058,-0.2058,-0.2057,-0.2057,0,-0.2324,-0.2343,-0.235,-0.2368,-0.2399,-0.2376,-0.2406,-0.2396,-0.2394,-0.2417,-0.2351,-0.2361,-0.2257,-0.2227,-0.2152,-0.2105,-0.2129,-0.2041,-0.2033,-0.206,-0.206,-0.1997,-0.1939,-0.2058,-0.2058,-0.2058,-0.2058,0,-0.2375,-0.2379,-0.2413,-0.2425,-0.2426,-0.245,-0.2457,-0.2486,-0.2481,-0.2513,-0.2512,-0.2466,-0.2426,-0.2321,-0.2259,-0.2187,-0.209,-0.2117,-0.2143,-0.2137,-0.204,-0.1984,-0.1923,-0.187,-0.2098,-0.2098,-0.2098,0,-0.2415,-0.2439,-0.2457,-0.2478,-0.2483,-0.251,-0.253,-0.2527,-0.2557,-0.2583,-0.2604,-0.2574,-0.2551,-0.2443,-0.2337,-0.2232,-0.2108,-0.2179,-0.2136,-0.2059,-0.1992,-0.1897,-0.185,-0.2191,-0.2192,-0.2193,-0.2193,0,-0.2482,-0.2475,-0.2492,-0.2527,-0.2554,-0.2582,-0.2611,-0.2636,-0.2648,-0.267,-0.2701,-0.2691,-0.2636,-0.2535,-0.2391,-0.2318,-0.2113,-0.2189,-0.212,-0.2081,-0.1972,-0.191,-0.2128,-0.22,-0.2199,-0.2198,-0.2198,-0.2198,-0.2513,-0.2523,-0.2527,-0.2546,-0.2591,-0.2612,-0.257,-0.2614,-0.2625,-0.2551,-0.2692,-0.2585,-0.2623,-0.2438,-0.2401,-0.2261,-0.2167,-0.2153,-0.2097,-0.201,-0.1949,-0.217,-0.222,-0.2219,-0.2219,-0.2218,-0.2218,0,-0.2523,-0.2508,-0.2542,-0.2532,-0.2546,-0.2571,-0.2578,-0.2488,-0.2434,-0.2404,-0.2384,-0.2378,-0.2359,-0.232,-0.2256,-0.2175,-0.2114,-0.2069,-0.1964,-0.1923,-0.2156,-0.2151,-0.2176,-0.2176,-0.2176,-0.2176,-0.2176,-0.2177,-0.2521,-0.2506,-0.249,-0.2456,-0.2453,-0.2368,-0.2321,-0.2209,-0.2119,-0.1914,-0.1805,-0.1855,-0.1892,-0.2054,-0.2012,-0.1995,-0.1873,-0.1848,-0.1738,-0.1931,-0.1935,-0.1938,-0.1922,-0.1899,-0.1899,-0.1523,-0.152,-0.1518]},{"header":{"parameterUnit":"m.s-1","parameterCategory":2,"la1":30.2991,"la2":30.254,"lo1":-89.0895,"lo2":-89.0444,"dy":0.0017,"dx":0.0017,"nx":28,"ny":28,"refTime":"2023-05-28T21:00:00:Z","depth":"0","parameterNumber":3,"parameterNumberName":"V-component_of_CURRENTS"},"data":[0,0,0,0,0,0,0,0,0,0,0,0,0,0,0,0,0,0,0,0,0,0,0,0,0,0,0,0,0,0,0,0,0,0,0,0,0,0,0,0,0,0,0,0,0,0,0,0,0,0,0,0,0,0,0,0,0,0,-0.0456,-0.0455,0,-0.0413,-0.0412,-0.0412,-0.0388,-0.0388,-0.0388,-0.0388,-0.0413,-0.0414,-0.0414,0,0,0,0,0,0,0,0,0,0,0,0,0,-0.0505,-0.0505,-0.0456,-0.0455,-0.0455,-0.0413,-0.0412,-0.0412,-0.0388,-0.0388,-0.0388,-0.0388,-0.0413,-0.0413,-0.0414,0,0,0,0,0,0,0,0,0,0,0,0,0,-0.0476,-0.0504,-0.0456,-0.0438,-0.0436,-0.0413,-0.0412,-0.0412,-0.0388,-0.0388,-0.0388,-0.0388,-0.0412,-0.0413,-0.0415,-0.0425,0,0,-0.0418,-0.0419,0,0,0,0,0,0,0,0,-0.0477,-0.0474,-0.0441,-0.0439,-0.0436,-0.0405,-0.0439,-0.0419,-0.0388,-0.0407,-0.0388,-0.0388,-0.0417,-0.0417,-0.0409,-0.0426,-0.0427,-0.0418,-0.0419,-0.0419,-0.042,0,0,0,0,0,0,0,-0.048,-0.0476,-0.0439,-0.044,-0.0438,-0.0427,-0.0423,-0.0435,-0.0415,-0.0405,-0.0403,-0.0398,-0.0416,-0.0408,-0.041,-0.0427,-0.0418,-0.0419,-0.042,-0.042,-0.0454,-0.0454,0,0,0,0,0,0,-0.0485,-0.0478,-0.0441,-0.0438,-0.0456,-0.0427,-0.0422,-0.0416,-0.0413,-0.0412,-0.0398,-0.0397,-0.0406,-0.0408,-0.0411,-0.0426,-0.0419,-0.042,-0.0421,-0.0454,-0.0454,-0.0454,0,0,0,0,0,0,-0.0486,-0.0482,-0.0442,-0.0457,-0.0451,-0.0426,-0.0419,-0.0415,-0.0408,-0.0407,-0.0407,-0.0395,-0.0406,-0.0409,-0.0421,-0.0426,-0.0421,-0.0422,-0.0453,-0.0454,-0.0454,-0.0454,0,0,0,0,0,0,-0.0487,-0.0482,-0.0481,-0.0457,-0.045,-0.0436,-0.0419,-0.0414,-0.0404,-0.0403,-0.0405,-0.0406,-0.0406,-0.0419,-0.0422,-0.0428,-0.0423,-0.0453,-0.0453,-0.0454,-0.0454,-0.0454,-0.0455,0,0,0,0,0,-0.0489,-0.049,-0.0481,-0.0476,-0.0448,-0.0437,-0.0433,-0.0414,-0.0405,-0.0406,-0.0403,-0.0406,-0.0424,-0.042,-0.0424,-0.043,-0.0453,-0.0453,-0.0454,-0.0454,-0.0454,-0.0455,0,0,0,0,0,0,-0.0519,-0.0486,-0.0476,-0.0469,-0.0457,-0.0433,-0.0431,-0.0417,-0.0413,-0.0414,-0.041,-0.0412,-0.0423,-0.0428,-0.0425,-0.044,-0.0439,-0.044,-0.0437,-0.0438,-0.0438,-0.0443,-0.0424,0,0,0,0,0,-0.0522,-0.0507,-0.0486,-0.048,-0.0476,-0.0454,-0.0446,-0.0435,-0.0427,-0.0424,-0.0421,-0.0423,-0.0427,-0.0434,-0.0439,-0.0452,-0.0427,-0.0458,-0.0458,-0.0459,-0.0465,-0.042,-0.0416,-0.0456,-0.0456,-0.0455,0,0,-0.053,-0.0512,-0.0503,-0.0484,-0.0473,-0.0475,-0.045,-0.0444,-0.0443,-0.0431,-0.0432,-0.0426,-0.043,-0.0438,-0.0444,-0.0445,-0.0432,-0.0459,-0.046,-0.0466,-0.042,-0.0415,-0.0412,-0.0456,-0.0456,-0.0456,0,0,-0.0547,-0.0527,-0.0525,-0.0517,-0.0502,-0.049,-0.049,-0.047,-0.0459,-0.0458,-0.0447,-0.044,-0.0451,-0.0446,-0.0448,-0.0456,-0.0434,-0.0463,-0.0474,-0.0429,-0.0425,-0.0421,-0.0371,-0.0363,-0.0466,-0.0466,-0.0466,0,-0.0564,-0.0555,-0.0525,-0.0529,-0.0525,-0.05,-0.0509,-0.0497,-0.0481,-0.0472,-0.0464,-0.045,-0.0452,-0.0453,-0.0456,-0.0457,-0.0427,-0.047,-0.0428,-0.0424,-0.042,-0.037,-0.0361,-0.0466,-0.0466,-0.0466,-0.0466,0,-0.0579,-0.0578,-0.058,-0.0572,-0.0563,-0.0569,-0.0549,-0.054,-0.0521,-0.0504,-0.0489,-0.0474,-0.0463,-0.0463,-0.0467,-0.0448,-0.0432,-0.0429,-0.0423,-0.0416,-0.0364,-0.0354,-0.0466,-0.0466,-0.0466,-0.0466,0,0,-0.0618,-0.0595,-0.0599,-0.0603,-0.0587,-0.0586,-0.058,-0.0568,-0.0557,-0.0534,-0.051,-0.051,-0.0485,-0.0485,-0.0474,-0.0444,-0.0387,-0.0432,-0.043,-0.0377,-0.028,-0.0262,-0.025,-0.0373,-0.0372,-0.0371,-0.0249,0,-0.0649,-0.0664,-0.0635,-0.0655,-0.0668,-0.0634,-0.0627,-0.0607,-0.058,-0.055,-0.0518,-0.0497,-0.0498,-0.0482,-0.0453,-0.0401,-0.0365,-0.042,-0.0301,-0.0297,-0.0278,-0.024,-0.0184,-0.0071,-0.0239,-0.0238,-0.0237,0,-0.0688,-0.069,-0.0713,-0.0696,-0.0695,-0.0697,-0.0672,-0.0659,-0.0611,-0.0582,-0.0546,-0.051,-0.0466,-0.046,-0.0364,-0.0397,-0.0346,-0.0303,-0.0297,-0.0278,-0.0263,-0.0109,-0.0047,0.0093,-0.0222,-0.0223,-0.0224,0,-0.0752,-0.0749,-0.0766,-0.0765,-0.0742,-0.0737,-0.072,-0.0679,-0.0658,-0.0598,-0.0563,-0.0504,-0.0452,-0.0389,-0.0303,-0.0328,-0.0179,-0.0197,-0.0131,-0.0128,-0.0058,-0.0052,0.0157,-0.0126,-0.0126,-0.0126,-0.0127,0,-0.0813,-0.083,-0.0798,-0.0816,-0.0831,-0.0785,-0.0784,-0.0753,-0.0687,-0.0657,-0.0587,-0.0529,-0.043,-0.0334,-0.0279,-0.0162,-0.0153,-0.0121,-0.0093,-0.0056,-0.0052,0.0089,0.013,-0.0122,-0.0123,-0.0124,-0.0124,0,-0.09,-0.0877,-0.0905,-0.0879,-0.0871,-0.0888,-0.0837,-0.0829,-0.0748,-0.0697,-0.0671,-0.0528,-0.039,-0.0286,-0.0149,-0.0116,0.0064,0.0017,0.0056,0.0085,0.024,0.0276,0.0438,0.0518,0.0103,0.0105,0.0106,0,-0.0952,-0.0974,-0.0969,-0.0996,-0.0993,-0.099,-0.0986,-0.0892,-0.0859,-0.0696,-0.0668,-0.0497,-0.038,-0.0156,-0.0033,0.01,0.0165,0.0198,0.0144,0.0274,0.0336,0.0324,0.0378,0.0253,0.0255,0.0257,0.0258,0,-0.1059,-0.1052,-0.1074,-0.1125,-0.1139,-0.1125,-0.109,-0.1056,-0.0924,-0.0827,-0.0658,-0.0536,-0.028,-0.0065,0.0114,0.0179,0.0303,0.0234,0.0375,0.0475,0.0471,0.0554,0.0149,0.0273,0.0272,0.0271,0.027,0.0269,-0.1149,-0.1193,-0.1221,-0.1274,-0.1278,-0.1253,-0.1221,-0.1139,-0.1037,-0.085,-0.0701,-0.0469,-0.0126,0.0157,0.0249,0.0504,0.0437,0.0557,0.0595,0.0574,0.0639,0.0259,0.0399,0.0398,0.0397,0.0397,0.0396,0,-0.128,-0.131,-0.1368,-0.1405,-0.142,-0.137,-0.1284,-0.1196,-0.106,-0.0871,-0.0684,-0.0242,0.008,0.0381,0.0734,0.086,0.0868,0.0939,0.0971,0.1011,0.0708,0.0705,0.0908,0.0908,0.0908,0.0908,0.0908,0.0908,-0.1356,-0.145,-0.1472,-0.1535,-0.1526,-0.1462,-0.1392,-0.1226,-0.1049,-0.0704,-0.042,-0.0196,0.0305,0.0857,0.1204,0.1226,0.1357,0.1333,0.1395,0.1227,0.1195,0.1164,0.1174,0.1473,0.1474,0.1699,0.1702,0.1704]}],[{"header":{"parameterUnit":"m.s-1","parameterCategory":2,"la1":30.2991,"la2":30.254,"lo1":-89.0895,"lo2":-89.0444,"dy":0.0017,"dx":0.0017,"nx":28,"ny":28,"refTime":"2023-05-28T21:00:00:Z","depth":"2","parameterNumber":2,"parameterNumberName":"U-component_of_CURRENTS"},"data":[0,0,0,0,0,0,0,0,0,0,0,0,0,0,0,0,0,0,0,0,0,0,0,0,0,0,0,0,0,0,0,0,0,0,0,0,0,0,0,0,0,0,0,0,0,0,0,0,0,0,0,0,0,0,0,0,0,0,-0.1051,-0.1052,0,-0.1127,-0.1128,-0.1129,-0.115,-0.115,-0.1149,-0.1149,-0.1175,-0.1176,-0.1177,0,0,0,0,0,0,0,0,0,0,0,0,0,-0.0976,-0.0977,-0.1051,-0.1052,-0.1053,-0.1127,-0.1128,-0.1129,-0.115,-0.115,-0.1149,-0.1149,-0.1174,-0.1176,-0.1177,0,0,0,0,0,0,0,0,0,0,0,0,0,-0.1027,-0.0978,-0.1051,-0.1072,-0.1074,-0.1126,-0.1128,-0.1129,-0.115,-0.115,-0.1149,-0.1148,-0.1174,-0.1176,-0.1177,-0.1203,0,0,-0.1183,-0.1183,0,0,0,0,0,0,0,0,-0.1024,-0.103,-0.1068,-0.1071,-0.1073,-0.1127,-0.1111,-0.1151,-0.1151,-0.1123,-0.1149,-0.1148,-0.1154,-0.1158,-0.1176,-0.1205,-0.1206,-0.1183,-0.1184,-0.1185,-0.1185,0,0,0,0,0,0,0,-0.102,-0.1027,-0.1082,-0.1069,-0.1072,-0.1095,-0.11,-0.1119,-0.1142,-0.1125,-0.1127,-0.1134,-0.1155,-0.1174,-0.1176,-0.1206,-0.1183,-0.1184,-0.1185,-0.1186,-0.1281,-0.1282,0,0,0,0,0,0,-0.1007,-0.1024,-0.108,-0.1084,-0.1045,-0.1096,-0.1103,-0.1112,-0.1143,-0.1147,-0.1134,-0.1134,-0.1171,-0.1174,-0.1177,-0.1238,-0.1185,-0.1186,-0.1187,-0.128,-0.1281,-0.1283,0,0,0,0,0,0,-0.1006,-0.1012,-0.1077,-0.1055,-0.1064,-0.1098,-0.1108,-0.1114,-0.1129,-0.115,-0.1153,-0.1143,-0.1171,-0.1175,-0.1213,-0.1238,-0.1187,-0.1189,-0.1278,-0.128,-0.1282,-0.1342,0,0,0,0,0,0,-0.1003,-0.1011,-0.102,-0.1054,-0.1065,-0.1124,-0.1109,-0.1116,-0.1134,-0.1135,-0.1159,-0.1161,-0.1171,-0.121,-0.1214,-0.124,-0.119,-0.1276,-0.1279,-0.1282,-0.1338,-0.1346,-0.1353,0,0,0,0,0,-0.1,-0.1003,-0.102,-0.1027,-0.1074,-0.1126,-0.1135,-0.1156,-0.1135,-0.1162,-0.1176,-0.116,-0.123,-0.1213,-0.1218,-0.1244,-0.1275,-0.1278,-0.1281,-0.1335,-0.1344,-0.1352,0,0,0,0,0,0,-0.1007,-0.1007,-0.1026,-0.104,-0.1091,-0.1129,-0.1148,-0.1155,-0.1187,-0.1181,-0.1185,-0.119,-0.1232,-0.123,-0.1211,-0.1279,-0.1247,-0.1252,-0.1286,-0.1295,-0.1302,-0.1321,-0.1192,0,0,0,0,0,-0.1007,-0.0988,-0.1037,-0.1054,-0.1076,-0.1112,-0.1133,-0.1154,-0.1181,-0.1194,-0.1213,-0.1229,-0.1251,-0.1266,-0.129,-0.1329,-0.1332,-0.1346,-0.1354,-0.136,-0.1379,-0.1419,-0.1431,-0.1294,-0.1294,-0.1294,0,0,-0.1009,-0.1014,-0.1004,-0.1051,-0.1085,-0.1155,-0.1123,-0.1163,-0.1223,-0.1191,-0.1265,-0.1257,-0.1267,-0.1318,-0.1335,-0.1319,-0.1397,-0.1364,-0.1369,-0.1385,-0.1424,-0.1437,-0.1449,-0.1296,-0.1296,-0.1295,0,0,-0.1037,-0.1022,-0.104,-0.1083,-0.1138,-0.117,-0.1181,-0.1233,-0.1256,-0.1319,-0.1309,-0.1325,-0.1363,-0.1387,-0.1396,-0.1458,-0.1434,-0.1448,-0.1503,-0.1541,-0.1553,-0.1563,-0.1566,-0.1576,-0.1451,-0.1451,-0.1452,0,-0.1061,-0.1098,-0.1064,-0.1127,-0.1174,-0.118,-0.1265,-0.1295,-0.1357,-0.1384,-0.1353,-0.1407,-0.1405,-0.1466,-0.1481,-0.1477,-0.1476,-0.1467,-0.1551,-0.1562,-0.1571,-0.1572,-0.1582,-0.1455,-0.1454,-0.1454,-0.1454,0,-0.1127,-0.1174,-0.1192,-0.1267,-0.1308,-0.1373,-0.142,-0.1462,-0.1468,-0.1499,-0.1545,-0.1536,-0.1567,-0.1557,-0.1535,-0.16,-0.1568,-0.1554,-0.1529,-0.1589,-0.1585,-0.1595,-0.1459,-0.1458,-0.1457,-0.1456,0,0,-0.1189,-0.1229,-0.1256,-0.1317,-0.139,-0.1443,-0.152,-0.161,-0.1659,-0.1677,-0.1733,-0.1746,-0.1708,-0.1716,-0.1679,-0.1695,-0.1743,-0.1649,-0.165,-0.1652,-0.1802,-0.1731,-0.1735,-0.1739,-0.1741,-0.1743,-0.1764,0,-0.1293,-0.1407,-0.1405,-0.1551,-0.1624,-0.1639,-0.1716,-0.1775,-0.1794,-0.1842,-0.181,-0.1846,-0.1779,-0.1773,-0.1782,-0.175,-0.1775,-0.1737,-0.1745,-0.1745,-0.1675,-0.1747,-0.1563,-0.1563,-0.1774,-0.1776,-0.1777,0,-0.1405,-0.1466,-0.159,-0.1692,-0.1728,-0.1798,-0.19,-0.1966,-0.2006,-0.2013,-0.2016,-0.1981,-0.1991,-0.1919,-0.1921,-0.1894,-0.1866,-0.1835,-0.1835,-0.1761,-0.1694,-0.1542,-0.1573,-0.1793,-0.1792,-0.1791,-0.179,0,-0.1478,-0.1616,-0.1705,-0.1745,-0.1845,-0.1897,-0.1956,-0.2014,-0.2079,-0.2106,-0.2133,-0.2126,-0.2117,-0.209,-0.2006,-0.1973,-0.1994,-0.1949,-0.1869,-0.1862,-0.1705,-0.1681,-0.1992,-0.1992,-0.1992,-0.1992,-0.1992,0,-0.1586,-0.1673,-0.1739,-0.1792,-0.1933,-0.1957,-0.2079,-0.213,-0.2181,-0.2259,-0.2212,-0.2248,-0.2162,-0.2142,-0.2064,-0.199,-0.2054,-0.19,-0.188,-0.1717,-0.1695,-0.1894,-0.1883,-0.1993,-0.1992,-0.1992,-0.1992,0,-0.163,-0.1673,-0.18,-0.1914,-0.1957,-0.2049,-0.2173,-0.2247,-0.2279,-0.2365,-0.2378,-0.2363,-0.2315,-0.2224,-0.2168,-0.2071,-0.2008,-0.1978,-0.177,-0.1725,-0.1829,-0.1821,-0.1888,-0.1886,-0.1884,-0.1883,-0.1882,0,-0.163,-0.1689,-0.1875,-0.1962,-0.2011,-0.2135,-0.2218,-0.2297,-0.2361,-0.2436,-0.2475,-0.2452,-0.2366,-0.2233,-0.2066,-0.1917,-0.2001,-0.1724,-0.1642,-0.1855,-0.1827,-0.1821,-0.1815,-0.1445,-0.1441,-0.1437,-0.1434,0,-0.1633,-0.1707,-0.1815,-0.2004,-0.2119,-0.225,-0.2355,-0.2404,-0.2473,-0.2472,-0.2444,-0.2362,-0.2244,-0.1976,-0.1822,-0.1711,-0.1718,-0.1643,-0.1947,-0.1503,-0.144,-0.1412,-0.142,-0.14,-0.1404,-0.1406,-0.1408,-0.1409,-0.1614,-0.1709,-0.1851,-0.2017,-0.218,-0.2269,-0.224,-0.231,-0.2299,-0.2208,-0.2301,-0.2098,-0.2004,-0.1622,-0.1497,-0.1395,-0.1492,-0.1407,-0.1418,-0.1433,-0.1381,-0.1319,-0.1245,-0.1247,-0.1249,-0.1251,-0.1252,0,-0.1544,-0.1669,-0.1838,-0.1999,-0.2092,-0.2207,-0.2252,-0.2096,-0.1928,-0.2012,-0.1876,-0.1594,-0.1395,-0.1361,-0.1127,-0.1035,-0.0987,-0.101,-0.0972,-0.1004,-0.1033,-0.0961,-0.0714,-0.0712,-0.0711,-0.0711,0,0,-0.1512,-0.1609,-0.1698,-0.1809,-0.1917,-0.1855,-0.179,-0.1587,-0.1531,-0.1381,-0.1338,-0.1363,-0.1353,-0.1079,-0.0951,-0.0839,-0.0922,-0.0772,-0.1196,-0.1189,-0.1218,-0.1241,-0.1164,0,0,0,0,0]},{"header":{"parameterUnit":"m.s-1","parameterCategory":2,"la1":30.2991,"la2":30.254,"lo1":-89.0895,"lo2":-89.0444,"dy":0.0017,"dx":0.0017,"nx":28,"ny":28,"refTime":"2023-05-28T21:00:00:Z","depth":"2","parameterNumber":3,"parameterNumberName":"V-component_of_CURRENTS"},"data":[0,0,0,0,0,0,0,0,0,0,0,0,0,0,0,0,0,0,0,0,0,0,0,0,0,0,0,0,0,0,0,0,0,0,0,0,0,0,0,0,0,0,0,0,0,0,0,0,0,0,0,0,0,0,0,0,0,0,0.0006,0.0006,0,-0.002,-0.002,-0.0021,-0.0052,-0.0053,-0.0053,-0.0053,-0.0087,-0.0087,-0.0088,0,0,0,0,0,0,0,0,0,0,0,0,0,-0.0001,-0.0001,0.0006,0.0006,0.0006,-0.002,-0.002,-0.0021,-0.0052,-0.0053,-0.0053,-0.0054,-0.0086,-0.0087,-0.0088,0,0,0,0,0,0,0,0,0,0,0,0,0,-0.0011,-0.0001,0.0006,-0.0012,-0.0014,-0.002,-0.002,-0.0021,-0.0052,-0.0053,-0.0053,-0.0054,-0.0086,-0.0087,-0.0088,-0.008,0,0,-0.009,-0.009,0,0,0,0,0,0,0,0,-0.001,-0.001,-0.0009,-0.0011,-0.0013,-0.0033,-0.0035,-0.0041,-0.0052,-0.0039,-0.0053,-0.0054,-0.0068,-0.0071,-0.0075,-0.0082,-0.0083,-0.009,-0.0091,-0.0091,-0.0091,0,0,0,0,0,0,0,-0.0009,-0.001,-0.0005,-0.0009,-0.0012,-0.003,-0.0032,-0.0037,-0.005,-0.004,-0.0042,-0.0043,-0.007,-0.0074,-0.0076,-0.0084,-0.009,-0.0091,-0.0091,-0.0092,-0.0106,-0.0106,0,0,0,0,0,0,-0.0002,-0.0009,-0.0004,-0.0006,-0.0012,-0.0029,-0.0031,-0.0026,-0.005,-0.0054,-0.0043,-0.0045,-0.0073,-0.0075,-0.0078,-0.0096,-0.0091,-0.0092,-0.0092,-0.0106,-0.0106,-0.0106,0,0,0,0,0,0,-0.0002,-0.0001,-0.0003,-0.0008,-0.0009,-0.0028,-0.0023,-0.0027,-0.0042,-0.0052,-0.0057,-0.0055,-0.0073,-0.0076,-0.0082,-0.0097,-0.0092,-0.0093,-0.0106,-0.0106,-0.0106,-0.0116,0,0,0,0,0,0,-0.0002,-0.0001,-0.0,-0.0007,-0.0008,-0.0016,-0.0022,-0.0027,-0.0041,-0.0044,-0.0064,-0.0067,-0.0074,-0.0081,-0.0083,-0.0098,-0.0093,-0.0106,-0.0106,-0.0106,-0.0116,-0.0116,-0.0117,0,0,0,0,0,-0.0002,-0.0007,0.0,0.0,-0.0005,-0.0017,-0.002,-0.0036,-0.0041,-0.0052,-0.0055,-0.0067,-0.0082,-0.0081,-0.0084,-0.0099,-0.0106,-0.0106,-0.0106,-0.0116,-0.0116,-0.0117,0,0,0,0,0,0,-0.0038,-0.001,-0.0003,-0.0006,-0.0011,-0.0022,-0.0036,-0.0039,-0.0051,-0.0056,-0.0063,-0.0066,-0.0077,-0.0081,-0.008,-0.0101,-0.0098,-0.0098,-0.0104,-0.0105,-0.0106,-0.0133,-0.0094,0,0,0,0,0,-0.0035,-0.0017,-0.001,-0.0017,-0.0017,-0.0024,-0.0033,-0.004,-0.0048,-0.0055,-0.0063,-0.0071,-0.0076,-0.0085,-0.0089,-0.0099,-0.0091,-0.0111,-0.0111,-0.0112,-0.0135,-0.013,-0.0132,-0.0105,-0.0105,-0.0105,0,0,-0.0051,-0.0037,-0.0028,-0.002,-0.0027,-0.0035,-0.0032,-0.0049,-0.0054,-0.0055,-0.007,-0.0072,-0.0077,-0.0088,-0.0094,-0.0096,-0.0105,-0.0111,-0.0112,-0.0135,-0.013,-0.0133,-0.0135,-0.0105,-0.0105,-0.0105,0,0,-0.0084,-0.0062,-0.006,-0.0057,-0.0059,-0.0055,-0.0059,-0.0065,-0.0067,-0.007,-0.0073,-0.009,-0.0089,-0.0107,-0.0112,-0.0119,-0.0104,-0.0111,-0.0143,-0.0137,-0.014,-0.0143,-0.0094,-0.0093,-0.0116,-0.0116,-0.0116,0,-0.0115,-0.0107,-0.007,-0.0077,-0.0082,-0.0063,-0.0082,-0.0073,-0.008,-0.0086,-0.0077,-0.0102,-0.0106,-0.0135,-0.0135,-0.0125,-0.0097,-0.0141,-0.0139,-0.0142,-0.0144,-0.0095,-0.0093,-0.0116,-0.0116,-0.0116,-0.0116,0,-0.0143,-0.0142,-0.015,-0.0134,-0.013,-0.0148,-0.0122,-0.0118,-0.011,-0.0109,-0.0129,-0.0134,-0.0162,-0.0154,-0.0146,-0.017,-0.0133,-0.0135,-0.014,-0.0148,-0.0094,-0.0092,-0.0117,-0.0117,-0.0117,-0.0117,0,0,-0.022,-0.0176,-0.0187,-0.0191,-0.0165,-0.0175,-0.0157,-0.0156,-0.0171,-0.016,-0.0185,-0.0195,-0.021,-0.0218,-0.0218,-0.0212,-0.0187,-0.0181,-0.018,-0.0137,-0.0133,-0.0051,-0.004,-0.018,-0.018,-0.0181,-0.0074,0,-0.0273,-0.0296,-0.0248,-0.0278,-0.0292,-0.0244,-0.0236,-0.0222,-0.021,-0.022,-0.0217,-0.0243,-0.0228,-0.0253,-0.0245,-0.02,-0.0187,-0.0214,-0.013,-0.0128,-0.0058,-0.0038,-0.008,0.0015,-0.0071,-0.0071,-0.0071,0,-0.0329,-0.0336,-0.0367,-0.0352,-0.0355,-0.0357,-0.0353,-0.0344,-0.0322,-0.0315,-0.0331,-0.032,-0.0318,-0.0307,-0.0247,-0.0256,-0.0209,-0.0167,-0.0162,-0.0092,-0.0043,0.0001,0.0023,-0.0067,-0.0067,-0.0067,-0.0067,0,-0.0418,-0.0425,-0.0452,-0.0449,-0.0422,-0.0424,-0.0414,-0.039,-0.0392,-0.0388,-0.0386,-0.0383,-0.0366,-0.0325,-0.0227,-0.0237,-0.0132,-0.0138,-0.0022,-0.0013,-0.004,-0.0033,-0.0119,-0.0119,-0.0119,-0.0119,-0.012,0,-0.049,-0.0517,-0.0501,-0.0517,-0.0566,-0.0509,-0.055,-0.053,-0.0507,-0.0506,-0.0461,-0.0441,-0.0368,-0.0288,-0.0227,-0.009,-0.0132,-0.0025,0.0011,-0.0037,-0.0032,-0.0111,-0.0112,-0.0115,-0.0116,-0.0117,-0.0118,0,-0.0573,-0.0554,-0.06,-0.0599,-0.0605,-0.0645,-0.0635,-0.066,-0.0608,-0.0597,-0.0592,-0.0472,-0.0335,-0.0243,-0.0132,-0.0066,0.0029,0.0075,0.0045,0.0074,0.0146,0.0143,0.0215,0.0219,0.0222,0.0224,0.0226,0,-0.0601,-0.0638,-0.0688,-0.0731,-0.0734,-0.0772,-0.0793,-0.074,-0.074,-0.0601,-0.059,-0.0435,-0.0311,-0.0084,0.0032,0.0169,0.0139,0.022,0.0171,0.0148,0.0175,0.0168,0.0162,0.0149,0.015,0.0151,0.0152,0,-0.0685,-0.0716,-0.0765,-0.0865,-0.0907,-0.0932,-0.0935,-0.0921,-0.0816,-0.0746,-0.0573,-0.0446,-0.0198,-0.0018,0.0172,0.0232,0.0195,0.0251,0.0216,0.0079,0.0096,0.012,0.0113,0.0162,0.0161,0.016,0.016,0.0159,-0.0764,-0.0843,-0.0927,-0.1021,-0.1059,-0.1053,-0.1036,-0.0983,-0.0905,-0.0727,-0.0592,-0.0359,-0.0196,0.0103,0.022,0.0332,0.0321,0.0322,0.0313,0.0305,0.0286,0.0308,0.0412,0.0413,0.0413,0.0413,0.0414,0,-0.0874,-0.0968,-0.1071,-0.115,-0.1191,-0.1171,-0.1107,-0.1026,-0.0886,-0.0722,-0.0549,-0.0309,-0.0093,0.0096,0.0281,0.0385,0.0323,0.0402,0.0285,0.0275,0.0267,0.0241,0.0358,0.0359,0.0359,0.0359,0,0,-0.094,-0.1092,-0.1156,-0.1262,-0.1279,-0.1235,-0.1165,-0.1007,-0.0853,-0.0641,-0.0468,-0.031,-0.006,0.0052,0.017,0.0283,0.0243,0.0283,0.0312,0.0147,0.0138,0.0207,0.0157,0,0,0,0,0]}],[{"header":{"parameterUnit":"m.s-1","parameterCategory":2,"la1":30.2991,"la2":30.254,"lo1":-89.0895,"lo2":-89.0444,"dy":0.0017,"dx":0.0017,"nx":28,"ny":28,"refTime":"2023-05-28T21:00:00:Z","depth":"4","parameterNumber":2,"parameterNumberName":"U-component_of_CURRENTS"},"data":[0,0,0,0,0,0,0,0,0,0,0,0,0,0,0,0,0,0,0,0,0,0,0,0,0,0,0,0,0,0,0,0,0,0,0,0,0,0,0,0,0,0,0,0,0,0,0,0,0,0,0,0,0,0,0,0,0,0,-0.0617,-0.0618,0,-0.0654,-0.0654,-0.0653,-0.0623,-0.0622,-0.0622,-0.0621,-0.0779,-0.0784,-0.0788,0,0,0,0,0,0,0,0,0,0,0,0,0,-0.049,-0.0492,-0.0617,-0.0618,-0.0619,-0.0654,-0.0654,-0.0653,-0.0623,-0.0622,-0.0622,-0.0621,-0.0777,-0.0783,-0.0789,0,0,0,0,0,0,0,0,0,0,0,0,0,-0.053,-0.0493,-0.0616,-0.0615,-0.0615,-0.0654,-0.0654,-0.0653,-0.0623,-0.0622,-0.0622,-0.0621,-0.0776,-0.0782,-0.0789,-0.0847,0,0,-0.0811,-0.0814,0,0,0,0,0,0,0,0,-0.0527,-0.0533,-0.0614,-0.0615,-0.0616,-0.0641,-0.0667,-0.0727,-0.0623,-0.0611,-0.0621,-0.0621,-0.075,-0.0759,-0.0754,-0.0854,-0.0861,-0.0811,-0.0815,-0.0818,-0.082,0,0,0,0,0,0,0,-0.0525,-0.0531,-0.0622,-0.0615,-0.0617,-0.0603,-0.0607,-0.0677,-0.068,-0.0612,-0.0612,-0.063,-0.075,-0.0747,-0.0758,-0.0863,-0.0811,-0.0817,-0.0821,-0.0824,-0.1098,-0.1101,0,0,0,0,0,0,-0.0541,-0.0529,-0.0621,-0.0624,-0.0579,-0.0606,-0.0611,-0.0626,-0.0676,-0.0685,-0.0631,-0.0629,-0.0735,-0.0749,-0.0763,-0.0966,-0.0818,-0.0825,-0.0829,-0.1095,-0.1099,-0.1102,0,0,0,0,0,0,-0.0538,-0.0548,-0.062,-0.0584,-0.0594,-0.0611,-0.0628,-0.0628,-0.0665,-0.0691,-0.07,-0.0674,-0.0735,-0.0754,-0.0854,-0.0967,-0.0828,-0.0834,-0.1091,-0.1096,-0.11,-0.1287,0,0,0,0,0,0,-0.0534,-0.0547,-0.0568,-0.0586,-0.0597,-0.0658,-0.0629,-0.0629,-0.0679,-0.0678,-0.0732,-0.0742,-0.0736,-0.0844,-0.0861,-0.0974,-0.084,-0.1087,-0.1093,-0.1099,-0.1277,-0.1298,-0.1315,0,0,0,0,0,-0.0529,-0.0562,-0.0568,-0.058,-0.0623,-0.0661,-0.0664,-0.0667,-0.0683,-0.0698,-0.0744,-0.0742,-0.0892,-0.0852,-0.0872,-0.0989,-0.1084,-0.1092,-0.1098,-0.1269,-0.1294,-0.1315,0,0,0,0,0,0,-0.0511,-0.0564,-0.057,-0.0616,-0.0645,-0.0659,-0.0683,-0.0704,-0.075,-0.0763,-0.0788,-0.0802,-0.0919,-0.0927,-0.0882,-0.1078,-0.0988,-0.0999,-0.1111,-0.1135,-0.1153,-0.1169,-0.0846,0,0,0,0,0,-0.0522,-0.0569,-0.0601,-0.0643,-0.0659,-0.0685,-0.0708,-0.0719,-0.0762,-0.078,-0.0824,-0.0882,-0.0958,-0.1023,-0.1053,-0.1191,-0.1121,-0.1273,-0.1292,-0.1308,-0.1331,-0.1361,-0.1385,-0.1125,-0.1125,-0.1125,0,0,-0.053,-0.0568,-0.0594,-0.0645,-0.0665,-0.0693,-0.0695,-0.0745,-0.0784,-0.0799,-0.0878,-0.0941,-0.0997,-0.1118,-0.1177,-0.1153,-0.1322,-0.1317,-0.1332,-0.1346,-0.1371,-0.1396,-0.1419,-0.113,-0.1129,-0.1128,0,0,-0.0547,-0.06,-0.0624,-0.0659,-0.071,-0.0732,-0.0765,-0.0808,-0.0838,-0.0945,-0.0958,-0.111,-0.12,-0.1285,-0.134,-0.1498,-0.1398,-0.1498,-0.1655,-0.1685,-0.1707,-0.1726,-0.1563,-0.1566,-0.1541,-0.1541,-0.1542,0,-0.0545,-0.0589,-0.0637,-0.0664,-0.0701,-0.076,-0.0786,-0.0834,-0.091,-0.097,-0.0988,-0.1208,-0.1295,-0.1473,-0.1553,-0.1554,-0.1462,-0.1571,-0.1712,-0.1729,-0.1745,-0.1575,-0.1576,-0.1551,-0.155,-0.1549,-0.1548,0,-0.0557,-0.0609,-0.0635,-0.0691,-0.0731,-0.0783,-0.0846,-0.0928,-0.1016,-0.1069,-0.1257,-0.1389,-0.1546,-0.1611,-0.1664,-0.1844,-0.1693,-0.1706,-0.1655,-0.1783,-0.1593,-0.1591,-0.1565,-0.1562,-0.1559,-0.1556,0,0,-0.0523,-0.0618,-0.0633,-0.0661,-0.0759,-0.0788,-0.0902,-0.1008,-0.1104,-0.1244,-0.1402,-0.1634,-0.174,-0.1812,-0.1904,-0.1993,-0.2057,-0.1935,-0.1932,-0.1772,-0.1958,-0.1831,-0.1812,-0.2086,-0.2089,-0.2092,-0.1739,0,-0.0517,-0.0559,-0.0624,-0.0693,-0.0721,-0.084,-0.095,-0.1067,-0.1183,-0.1349,-0.1557,-0.1747,-0.1796,-0.1963,-0.2052,-0.2067,-0.2076,-0.2141,-0.1859,-0.1847,-0.1725,-0.182,-0.2103,-0.1736,-0.1735,-0.1735,-0.1735,0,-0.0501,-0.054,-0.0583,-0.0717,-0.0745,-0.0832,-0.102,-0.1137,-0.1377,-0.1497,-0.1718,-0.1835,-0.2074,-0.2115,-0.2133,-0.2154,-0.2088,-0.2055,-0.204,-0.187,-0.1724,-0.1608,-0.1729,-0.1729,-0.1729,-0.173,-0.173,0,-0.0427,-0.0522,-0.0558,-0.0596,-0.0749,-0.0859,-0.1012,-0.1215,-0.1324,-0.1655,-0.1749,-0.1969,-0.2101,-0.2124,-0.2091,-0.213,-0.1994,-0.2023,-0.178,-0.1758,-0.1888,-0.1873,-0.2007,-0.2007,-0.2008,-0.2009,-0.201,0,-0.0406,-0.0441,-0.0554,-0.0583,-0.0687,-0.0863,-0.1044,-0.1219,-0.1493,-0.1539,-0.1863,-0.1877,-0.2122,-0.2066,-0.2052,-0.1862,-0.1937,-0.1802,-0.1714,-0.1952,-0.1951,-0.1876,-0.1865,-0.1996,-0.1999,-0.2001,-0.2004,0,-0.0331,-0.0395,-0.043,-0.0592,-0.0652,-0.0766,-0.1052,-0.115,-0.1454,-0.1533,-0.1664,-0.1819,-0.1755,-0.1827,-0.1795,-0.1743,-0.1654,-0.1547,-0.1658,-0.1578,-0.1374,-0.1377,-0.1262,-0.1256,-0.125,-0.1246,-0.1242,0,-0.0305,-0.0311,-0.0388,-0.0402,-0.0495,-0.0698,-0.0795,-0.1127,-0.1175,-0.1353,-0.1305,-0.1393,-0.1436,-0.1269,-0.1381,-0.133,-0.1342,-0.126,-0.1508,-0.1399,-0.1324,-0.1335,-0.1346,-0.1234,-0.1233,-0.1231,-0.123,0,-0.0238,-0.025,-0.0262,-0.0293,-0.0361,-0.0452,-0.0619,-0.067,-0.0923,-0.1067,-0.1024,-0.1118,-0.0994,-0.1083,-0.1085,-0.1038,-0.136,-0.1206,-0.122,-0.1452,-0.1363,-0.1297,-0.1313,-0.1212,-0.1214,-0.1216,-0.1217,0,-0.0178,-0.0142,-0.0148,-0.0175,-0.0214,-0.0262,-0.0391,-0.0457,-0.0605,-0.0784,-0.0645,-0.0764,-0.0831,-0.0898,-0.0834,-0.0894,-0.093,-0.0979,-0.1006,-0.1027,-0.1153,-0.1018,-0.0689,0,0,0,0,0,-0.0125,-0.0064,-0.0044,-0.0083,-0.0113,-0.0164,-0.0243,-0.0367,-0.0479,-0.0396,-0.0609,-0.0516,-0.0604,-0.0653,-0.0681,-0.0723,-0.0925,-0.0749,-0.0992,-0.111,-0.1131,-0.1323,0,0,0,0,0,0,-0.0083,-0.0038,0.0,-0.0005,-0.0021,-0.0084,-0.0143,-0.0215,-0.0249,-0.034,-0.0398,-0.0459,-0.0556,-0.0572,-0.0655,-0.0672,-0.0816,-0.0809,-0.0808,-0.1098,-0.1118,-0.1135,-0.1339,0,0,0,0,0]},{"header":{"parameterUnit":"m.s-1","parameterCategory":2,"la1":30.2991,"la2":30.254,"lo1":-89.0895,"lo2":-89.0444,"dy":0.0017,"dx":0.0017,"nx":28,"ny":28,"refTime":"2023-05-28T21:00:00:Z","depth":"4","parameterNumber":3,"parameterNumberName":"V-component_of_CURRENTS"},"data":[0,0,0,0,0,0,0,0,0,0,0,0,0,0,0,0,0,0,0,0,0,0,0,0,0,0,0,0,0,0,0,0,0,0,0,0,0,0,0,0,0,0,0,0,0,0,0,0,0,0,0,0,0,0,0,0,0,0,-0.033,-0.033,0,-0.0355,-0.0356,-0.0357,-0.0356,-0.0355,-0.0354,-0.0353,-0.0327,-0.0327,-0.0327,0,0,0,0,0,0,0,0,0,0,0,0,0,-0.0326,-0.0326,-0.033,-0.033,-0.033,-0.0355,-0.0356,-0.0357,-0.0356,-0.0355,-0.0354,-0.0353,-0.0326,-0.0327,-0.0327,0,0,0,0,0,0,0,0,0,0,0,0,0,-0.0343,-0.0326,-0.033,-0.0328,-0.0327,-0.0355,-0.0356,-0.0357,-0.0357,-0.0355,-0.0354,-0.0352,-0.0326,-0.0327,-0.0327,-0.0356,0,0,-0.0327,-0.0328,0,0,0,0,0,0,0,0,-0.0342,-0.0344,-0.0328,-0.0328,-0.0327,-0.0346,-0.0345,-0.0352,-0.0357,-0.0352,-0.0353,-0.0352,-0.0325,-0.0325,-0.0343,-0.0355,-0.0353,-0.0327,-0.0328,-0.0328,-0.0328,0,0,0,0,0,0,0,-0.0341,-0.0343,-0.0346,-0.0328,-0.0327,-0.034,-0.0341,-0.0347,-0.035,-0.0352,-0.0351,-0.0344,-0.0325,-0.0343,-0.0342,-0.0353,-0.0327,-0.0328,-0.0328,-0.0328,-0.0366,-0.0367,0,0,0,0,0,0,-0.0324,-0.0342,-0.0345,-0.0347,-0.0324,-0.0341,-0.0342,-0.0346,-0.0351,-0.0349,-0.0345,-0.0344,-0.0343,-0.0342,-0.0341,-0.0353,-0.0328,-0.0328,-0.0328,-0.0365,-0.0366,-0.0367,0,0,0,0,0,0,-0.0324,-0.0325,-0.0344,-0.0339,-0.0341,-0.0341,-0.0346,-0.0347,-0.0363,-0.0345,-0.0343,-0.0358,-0.0342,-0.034,-0.0342,-0.0352,-0.0328,-0.0328,-0.0364,-0.0366,-0.0367,-0.0391,0,0,0,0,0,0,-0.0324,-0.0325,-0.0332,-0.0338,-0.0341,-0.0365,-0.0347,-0.0349,-0.0358,-0.0357,-0.0355,-0.0352,-0.0341,-0.0342,-0.0342,-0.0352,-0.0328,-0.0363,-0.0365,-0.0366,-0.0389,-0.0393,-0.0396,0,0,0,0,0,-0.0324,-0.0333,-0.0333,-0.0333,-0.0347,-0.0366,-0.037,-0.0369,-0.036,-0.0377,-0.0367,-0.0352,-0.0353,-0.0343,-0.0343,-0.0353,-0.0362,-0.0364,-0.0366,-0.0387,-0.0392,-0.0396,0,0,0,0,0,0,-0.0333,-0.0333,-0.0333,-0.0341,-0.0354,-0.0363,-0.0376,-0.0375,-0.0386,-0.0383,-0.0364,-0.036,-0.0367,-0.0361,-0.0351,-0.037,-0.0355,-0.0358,-0.0372,-0.0376,-0.038,-0.033,-0.0329,0,0,0,0,0,-0.0338,-0.0345,-0.035,-0.0359,-0.0367,-0.0376,-0.0384,-0.0387,-0.0389,-0.0394,-0.0394,-0.0388,-0.038,-0.0376,-0.0379,-0.0391,-0.0366,-0.0398,-0.0402,-0.0405,-0.0366,-0.0284,-0.0275,-0.0374,-0.0374,-0.0374,0,0,-0.0343,-0.0343,-0.0347,-0.0361,-0.0374,-0.041,-0.038,-0.0399,-0.0431,-0.0388,-0.0433,-0.0406,-0.0387,-0.0398,-0.04,-0.039,-0.0393,-0.0407,-0.041,-0.0368,-0.0285,-0.0274,-0.0265,-0.0375,-0.0375,-0.0375,0,0,-0.0358,-0.036,-0.0377,-0.0401,-0.0417,-0.0431,-0.0438,-0.0459,-0.0469,-0.0494,-0.0468,-0.0433,-0.0455,-0.0424,-0.0412,-0.0437,-0.0415,-0.0454,-0.0427,-0.0349,-0.0339,-0.0329,-0.0401,-0.0397,-0.0452,-0.0452,-0.0452,0,-0.0362,-0.0394,-0.0386,-0.0422,-0.0451,-0.0446,-0.0493,-0.051,-0.053,-0.0532,-0.0512,-0.0484,-0.0459,-0.0437,-0.0421,-0.0442,-0.0431,-0.0412,-0.0349,-0.0338,-0.0327,-0.0402,-0.0397,-0.0454,-0.0454,-0.0454,-0.0453,0,-0.0402,-0.0439,-0.0455,-0.0504,-0.0534,-0.0573,-0.0596,-0.063,-0.0629,-0.0619,-0.0598,-0.0541,-0.0501,-0.05,-0.045,-0.0377,-0.0416,-0.0364,-0.0328,-0.0317,-0.0401,-0.0395,-0.0456,-0.0455,-0.0455,-0.0455,0,0,-0.0379,-0.0466,-0.0474,-0.0528,-0.0588,-0.062,-0.0681,-0.0717,-0.0741,-0.071,-0.07,-0.0626,-0.0542,-0.0516,-0.0458,-0.0364,-0.0304,-0.0307,-0.0302,-0.0366,-0.0224,-0.018,-0.0171,-0.0214,-0.021,-0.0207,-0.0355,0,-0.0418,-0.0499,-0.0541,-0.0645,-0.0696,-0.0742,-0.0803,-0.0828,-0.0821,-0.0811,-0.0703,-0.0641,-0.0571,-0.0498,-0.0405,-0.0285,-0.0268,-0.0274,-0.0234,-0.0236,-0.018,-0.0152,-0.0196,-0.035,-0.0349,-0.0348,-0.0347,0,-0.0444,-0.0501,-0.06,-0.0728,-0.0756,-0.0831,-0.0919,-0.0962,-0.0939,-0.0906,-0.0808,-0.0695,-0.0537,-0.0462,-0.0301,-0.0296,-0.026,-0.0199,-0.0203,-0.0121,-0.0172,-0.0335,-0.0336,-0.0337,-0.0338,-0.0339,-0.0339,0,-0.0421,-0.0549,-0.0633,-0.0678,-0.081,-0.0885,-0.0955,-0.0988,-0.101,-0.0912,-0.086,-0.0701,-0.0579,-0.0446,-0.0281,-0.0262,-0.0136,-0.0123,-0.0117,-0.0123,-0.0112,-0.0119,-0.0055,-0.0055,-0.0055,-0.0054,-0.0054,0,-0.0444,-0.0516,-0.0642,-0.0695,-0.0814,-0.0899,-0.1,-0.1032,-0.104,-0.1001,-0.087,-0.0773,-0.053,-0.0414,-0.031,-0.0184,-0.0179,-0.0095,-0.0106,-0.0144,-0.0152,-0.0117,-0.0122,-0.006,-0.0059,-0.0058,-0.0057,0,-0.0416,-0.0489,-0.0599,-0.0754,-0.0808,-0.0891,-0.1041,-0.1066,-0.1082,-0.1018,-0.0942,-0.0794,-0.0606,-0.0481,-0.0286,-0.0222,-0.0106,-0.0107,-0.0254,-0.0276,-0.018,-0.0186,-0.0108,-0.0107,-0.0106,-0.0104,-0.0104,0,-0.0416,-0.0463,-0.062,-0.068,-0.0768,-0.0901,-0.0955,-0.1047,-0.103,-0.1006,-0.0915,-0.0773,-0.0642,-0.0438,-0.0285,-0.0179,-0.0149,-0.0155,-0.0048,-0.0141,-0.0162,-0.0169,-0.0176,-0.0102,-0.0101,-0.0101,-0.0101,0,-0.0418,-0.0466,-0.055,-0.0659,-0.0746,-0.0843,-0.0919,-0.0926,-0.0951,-0.0955,-0.0837,-0.0714,-0.0573,-0.0393,-0.0326,-0.0232,-0.0133,-0.0141,-0.0143,-0.0043,-0.0133,-0.0156,-0.0164,-0.0096,-0.0097,-0.0097,-0.0097,0,-0.0409,-0.0452,-0.0541,-0.0636,-0.0727,-0.0768,-0.0841,-0.0831,-0.0857,-0.0811,-0.0764,-0.0657,-0.0579,-0.0429,-0.034,-0.024,-0.0206,-0.0156,-0.0156,-0.016,-0.0074,-0.0189,-0.0156,0,0,0,0,0,-0.0401,-0.0425,-0.0507,-0.0616,-0.0698,-0.0746,-0.0785,-0.0827,-0.0831,-0.0723,-0.0767,-0.0624,-0.0479,-0.0426,-0.0319,-0.0317,-0.0197,-0.0187,-0.0141,-0.0072,-0.0077,0.0048,0,0,0,0,0,0,-0.0392,-0.0455,-0.0481,-0.0566,-0.0626,-0.0705,-0.0728,-0.0737,-0.0692,-0.0685,-0.0612,-0.0575,-0.0444,-0.054,-0.0311,-0.0284,-0.0233,-0.0127,-0.0124,-0.0069,-0.0073,-0.0077,0.0049,0,0,0,0,0]}]]